Toronto Pearson, Ontario

5:07 AM EST on November 25, 2017 (GMT -0500)
Toronto-Pearson International

Weather History for CYYZ - November, 2012

Change the Weather History Date:

Sunday, November 25, 2012

  Actual Average Record
Temperature  
Mean Temperature 32 °F -  
Max Temperature 38 °F 35 °F 60 °F (2011)
Min Temperature 27 °F 21 °F 8 °F (2005)
Degree Days  
Heating Degree Days 32    
Moisture  
Dew Point 22 °F    
Average Humidity 65    
Maximum Humidity 87    
Minimum Humidity 43    
Precipitation  
Precipitation 0.00 in 0.09 in - ()
Sea Level Pressure  
Sea Level Pressure 29.87 in    
Wind  
Wind Speed 11 mph ()    
Max Wind Speed 17 mph    
Max Gust Speed 22 mph    
Visibility 13.4 miles    
Events Snow    
Averages and records for this station are not official NWS values.
T = Trace of Precipitation, MM = Missing Value Source: Averaged Metar Reports

Daily Weather History Graph

Daily Weather History Graph

Search for Another Location

Airport or City:

Trip Planner

Search our weather history database for the weather conditions in past years. The results will help you decide how hot, cold, wet, or windy it might be!

Date:

Astronomy

Nov. 25, 2012 Rise Set
Actual Time 7:25 AM EST 4:45 PM EST
Civil Twilight 6:53 AM EST 5:17 PM EST
Nautical Twilight 6:18 AM EST 5:52 PM EST
Astronomical Twilight 5:44 AM EST 6:26 PM EST
Moon 3:04 PM EST 4:34 AM EST
Length of Visible Light 10h 23m
Length of Day
9h 19m
Waxing Gibbous, 93% of the Moon is Illuminated
Nov 25
Waxing Gibbous
Nov 28
Full
Dec 6
Last Quarter
Dec 13
New
Dec 20
First Quarter

Hourly Weather History & Observations

Time (EST) Temp. Windchill Dew Point Humidity Pressure Visibility Wind Dir Wind Speed Gust Speed Precip Events Conditions
12:00 AM 32.0 °F 22.5 °F 19.4 °F 60% 29.95 in 15.0 mi WNW 12.7 mph - N/A   Mostly Cloudy
1:00 AM 32 °F - 18 °F 43% 29.94 in 15 mi West 11.5 mph - -   Partly Cloudy
1:00 AM 32.0 °F 22.5 °F 17.6 °F 55% 29.94 in 15.0 mi West 12.7 mph - N/A   Overcast
2:00 AM 32.0 °F 23.0 °F 17.6 °F 55% 29.93 in 15.0 mi West 11.5 mph - N/A   Overcast
3:00 AM 32.0 °F 21.6 °F 17.6 °F 55% 29.93 in 15.0 mi West 15.0 mph 21.9 mph N/A   Overcast
4:00 AM 32.0 °F 23.6 °F 19.4 °F 60% 29.93 in 15.0 mi West 10.4 mph - N/A   Overcast
5:00 AM 32.0 °F 24.2 °F 19.4 °F 60% 29.92 in 15.0 mi West 9.2 mph - N/A   Overcast
6:00 AM 32.0 °F 24.2 °F 21.2 °F 64% 29.91 in 15.0 mi West 9.2 mph - N/A   Overcast
7:00 AM 31 °F - 21 °F 56% 29.90 in 15 mi WSW 9.2 mph - -   Overcast
7:00 AM 32.0 °F 22.5 °F 21.2 °F 64% 29.90 in 15.0 mi WSW 12.7 mph - N/A   Overcast
7:19 AM 30.2 °F 19.8 °F - N/A% - 12.0 mi West 13.8 mph - N/A Snow Light Snow
8:00 AM 30.2 °F 19.3 °F 21.2 °F 69% 29.89 in 8.0 mi WSW 15.0 mph - N/A Snow Light Snow
8:17 AM 30.2 °F 20.2 °F - N/A% - 15.0 mi WSW 12.7 mph - N/A   Overcast
9:00 AM 30.2 °F 21.3 °F 19.4 °F 64% 29.89 in 15.0 mi WSW 10.4 mph 17.3 mph N/A   Overcast
10:00 AM 30.2 °F 19.8 °F 21.2 °F 69% 29.88 in 15.0 mi West 13.8 mph 20.7 mph N/A   Overcast
10:19 AM 30.2 °F 18.9 °F - N/A% - 10.0 mi WSW 16.1 mph - N/A Snow Light Snow
11:00 AM 32.0 °F 21.2 °F 23.0 °F 69% 29.87 in 10.0 mi WSW 16.1 mph - N/A Snow Light Snow
11:14 AM 32.0 °F 22.1 °F - N/A% - 15.0 mi West 13.8 mph - N/A   Mostly Cloudy
12:00 PM 33.8 °F 23.2 °F 23.0 °F 65% 29.84 in 15.0 mi WSW 17.3 mph - N/A   Mostly Cloudy
1:00 PM 34 °F - 23 °F 52% 29.82 in 15 mi West 11.5 mph - -   Partly Cloudy
1:00 PM 33.8 °F 24.8 °F 23.0 °F 65% 29.82 in 15.0 mi West 12.7 mph - N/A   Mostly Cloudy
2:00 PM 35.6 °F 28.0 °F 23.0 °F 60% 29.81 in 15.0 mi West 10.4 mph - N/A   Mostly Cloudy
3:00 PM 35.6 °F 28.0 °F 23.0 °F 60% 29.80 in 15.0 mi West 10.4 mph - N/A   Mostly Cloudy
4:00 PM 32.0 °F 23.6 °F 21.2 °F 64% 29.81 in 15.0 mi West 10.4 mph 17.3 mph N/A   Mostly Cloudy
5:00 PM 32.0 °F 23.6 °F 23.0 °F 69% 29.83 in 15.0 mi West 10.4 mph - N/A   Mostly Cloudy
6:00 PM 32.0 °F 25.6 °F 24.8 °F 75% 29.83 in 15.0 mi West 6.9 mph - N/A   Mostly Cloudy
7:00 PM 33 °F - 25 °F 62% 29.84 in 12 mi WSW 11.5 mph - -   Overcast
7:00 PM 32.0 °F 23.0 °F 24.8 °F 75% 29.84 in 12.0 mi WSW 11.5 mph - N/A   Overcast
7:39 PM 32.0 °F 22.5 °F - N/A% - 10.0 mi WSW 12.7 mph - N/A Snow Light Snow Grains
8:00 PM 32.0 °F 23.0 °F 28.4 °F 87% 29.85 in 9.0 mi WSW 11.5 mph - N/A Snow Light Snow Grains
8:34 PM 32.0 °F 22.1 °F - N/A% - 12.0 mi WSW 13.8 mph - N/A   Overcast
9:00 PM 32.0 °F 23.0 °F 26.6 °F 80% 29.86 in 10.0 mi WSW 11.5 mph - N/A   Overcast
10:00 PM 33.8 °F 25.3 °F 26.6 °F 75% 29.86 in 10.0 mi WSW 11.5 mph - N/A   Overcast
11:00 PM 33.8 °F 25.8 °F 26.6 °F 75% 29.86 in 12.0 mi WSW 10.4 mph - N/A   Overcast